{"data":{"norad_id":64571,"epoch":"2026-05-25T04:33:23.311296Z","epoch_age_seconds":52457,"freshness":"FRESH","line1":"1 64571U 25135AV  26145.18985314  .00001670  00000+0  17084-3 0  9992","line2":"2 64571  97.7701 259.6864 0002276  73.5380 286.6089 14.91859012 50452","mean_motion":14.91859012,"eccentricity":0.0002276,"inclination_deg":97.7701,"raan_deg":259.6864,"arg_perigee_deg":73.538,"mean_anomaly_deg":286.6089,"bstar":0.00017084,"rev_number":5045,"period_min":96.523866425523,"perigee_km":590.55274983951,"apogee_km":593.72561955878,"semimajor_km":6970.2761846991,"source":"CELESTRAK","updated_at":"2026-05-25T13:38:04.621018Z"}}